Regional Weather Roundup
Issued by NWS Kansas City/Pleasant Hill, MO

Home | Current Version | Previous Version | Text Only | Print | Product List | Glossary On
Versions: 1 2 3 4 5 6 7 8 9 10 11 12 13 14 15 16 17 18 19 20 21 22 23 24 25 26 27
000
ASUS43 KEAX 200910
RWREAX

WEATHER ROUNDUP FOR EASTERN KANSAS AND NORTHWEST MISSOURI
NATIONAL WEATHER SERVICE KANSAS CITY/PLEASANT HILL MO
400 AM CDT SUN MAY 20 2018

KSZ040-057-103>105-MOZ028-029-037-043-201000-
...KANSAS CITY METROPOLITAN AREA...

CITY           SKY/WX    TMP DP  RH WIND       PRES   REMARKS
K.C. INTL      PTCLDY    66  64  93 E5        29.98R
K.C. DOWNTOWN  CLOUDY    69  61  75 SE6       29.97R
LEES SUMMIT    CLOUDY    65  62  90 NW3       29.99R
OLATHE - IXD   MOCLDY    63  62  97 NW5       29.99R
OLATHE - OJC   MOCLDY    63  63 100 NE5       29.99R
LAWRENCE       CLOUDY    63  62  97 CALM      29.97S

$$

MOZ001>008-011>017-020>025-030>033-038>040-044>046-053-054-201000-
...NORTHERN AND CENTRAL MISSOURI...

CITY           SKY/WX    TMP DP  RH WIND       PRES   REMARKS
ST. JOSEPH     PTCLDY    62  60  93 N7        30.00R
MOSBY          CLOUDY    64  63  94 CALM      29.99R
WARRENSBURG    CLOUDY    61  57  88 NE5       29.99R
WHITEMAN AFB   CLOUDY    63  59  89 E3        29.96R
CLINTON        CLOUDY    64  64 100 CALM      29.99F
SEDALIA        LGT RAIN  66  66 100 S16G22    30.02S
WARSAW         NOT AVBL
CHILLICOTHE      N/A     68  65  90 SE5       30.00R
KIRKSVILLE     CLOUDY    64  63  96 S8        30.00

$$

MOZ041-047>049-056>058-063>065-088>090-097-201000-
...EASTERN AND SOUTHERN MISSOURI...

CITY           SKY/WX    TMP DP  RH WIND       PRES   REMARKS
ST. LOUIS INTL PTCLDY    64  62  93 CALM      30.00R
SPIRIT OF STL  PTCLDY    61  60  97 CALM      29.99R
COLUMBIA       TSTM      63  60  90 W5        30.00R
JEFFERSON CITY LGT RAIN  64  61  90 W9        30.05R
ROLLA          PTCLDY    63  60  90 S8        30.03R
OSAGE BEACH    TSTM      65  63  93 W9G17     30.08R
SPRINGFIELD    MOCLDY    69  63  81 NE8       30.02R
BRANSON        PTCLDY    68  64  88 SE6       30.02R
JOPLIN         CLOUDY    67  62  84 E8        29.96F
WEST PLAINS    MOCLDY    68  62  81 S8        30.04R

$$

IAZ060-094-KSZ022-034>040-054-083-096-NEZ052-066-093-201000-
...KANSAS...SOUTHEAST NEBRASKA AND IOWA...

CITY           SKY/WX    TMP DP  RH WIND       PRES   REMARKS
TOPEKA         MOCLDY    63  61  93 N5        29.98S
MANHATTAN      CLOUDY    59  55  87 VRB5      30.02R
EMPORIA        CLOUDY    65  61  87 N8        29.98R
CHANUTE        TSTM      67  65  93 SW17G26   29.98R
WICHITA        CLOUDY    62  58  86 NW18G24   29.98F
OMAHA          CLOUDY    59  55  87 N7        30.04R
LINCOLN        RAIN      56  54  93 N6        30.06S FOG
FALLS CITY     MOCLDY    59  56  89 NE5       30.00R
LAMONI         CLOUDY    59  57  93 N8        30.00R
DES MOINES     CLOUDY    60  54  80 N12       30.01R

$$





USA.gov is the U.S. government's official web portal to all federal, state and local government web resources and services.